Home > Weather > Lierbyen > Past weeks

Flag for Norway Past Weather in Lierbyen, Norway — Yesterday and Last 2 Weeks

Now
55 °F

Passing clouds.


Feels Like: 54 °F
Forecast: 48 / 58 °F
Wind: 7 mph from Southwest

Location: Statfjord B

Current Time: Aug 27, 2016 at 10:46:28 PM

Latest Report: Aug 27, 2016 at 9:50 PM


Visibility: N/A

Pressure: 30.09 "Hg

Humidity: 88%

Dew Point: 52 °F

Location of LierbyenLocation

Past Weather in Lierbyen — Graph

°F

Lierbyen Temperature Yesterday

Maximum temperature yesterday: 59 °F (at 3:50 PM)
Minimum temperature yesterday: 52 °F (at 5:50 AM)
Average temperature yesterday: 54 °F

High & Low Weather Summary for the Past Weeks

 TemperatureHumidityPressure
High63 °F (Aug 17, 10:20 AM)100% (Aug 12, 9:20 PM)30.30 "Hg (Aug 12, 9:20 PM)
Low50 °F (Aug 18, 5:50 AM)63% (Aug 17, 6:50 AM)29.62 "Hg (Aug 12, 9:20 PM)
Average55 °F90%30.01 "Hg
* Reported Aug 12 9:20 PM — Aug 27 9:20 PM, Lierbyen, Weather by CustomWeather, © 2016

Note: Actual official high and low records may vary slightly from our data, if they occured in-between our weather recording intervals... More about our weather records

Advertising

Lierbyen Weather History for the Previous 24 Hours

Scroll right to see more
 ConditionsComfort  
Time TempWeatherWind HumidityBarometerVisibility
9:20 PM
Sat, Aug 27
55 °FPartly sunny.7 mph88%30.09 "HgN/A
8:50 PM55 °FPartly sunny.7 mph94%30.09 "HgN/A
8:20 PM55 °FPartly sunny.8 mph88%30.09 "HgN/A
7:50 PM55 °FPartly sunny.8 mph88%30.09 "HgN/A
7:20 PM55 °FPartly sunny.8 mph88%30.12 "HgN/A
6:50 PM55 °FOvercast.9 mph88%30.12 "HgN/A
6:20 PM55 °FPartly sunny.8 mph88%30.12 "HgN/A
5:50 PM55 °FPartly sunny.8 mph88%30.12 "HgN/A
5:20 PM57 °FPartly sunny.6 mph82%30.12 "HgN/A
4:50 PM57 °FOvercast.5 mph82%30.12 "HgN/A
4:20 PM59 °FPartly sunny.2 mph77%30.12 "HgN/A
3:50 PM57 °FCool.2 mph82%30.09 "HgN/A
3:20 PM57 °FCool.3 mph82%30.09 "HgN/A
2:50 PM57 °FPassing clouds.5 mph82%30.09 "HgN/A
2:20 PM57 °FPassing clouds.7 mph88%30.09 "HgN/A
1:50 PM55 °FPartly sunny.5 mph88%30.09 "HgN/A
1:20 PM54 °FLight rain. Partly sunny.12 mph94%30.09 "HgN/A
12:50 PM57 °FPassing clouds.8 mph88%30.09 "HgN/A
12:20 PM57 °FPartly sunny.2 mph88%30.09 "HgN/A
11:50 AM57 °FBroken clouds.No wind88%30.07 "HgN/A
11:20 AM57 °FPartly sunny.3 mph82%30.07 "HgN/A
10:50 AM59 °FOvercast.5 mph82%30.07 "HgN/A
10:20 AM61 °FPartly sunny.6 mph72%30.04 "HgN/A
9:50 AM59 °FPassing clouds.8 mph82%30.04 "HgN/A
9:20 AM59 °FScattered clouds.7 mph82%30.04 "HgN/A
8:50 AM55 °FPartly sunny.9 mph88%30.01 "HgN/A
8:20 AM55 °FPartly sunny.8 mph88%30.01 "HgN/A
7:50 AM54 °FBroken clouds.7 mph94%29.98 "HgN/A
7:20 AM54 °FPartly sunny.6 mph94%29.98 "HgN/A
6:50 AM54 °FPassing clouds.7 mph94%29.98 "HgN/A
6:20 AM54 °FPassing clouds.7 mph94%29.95 "HgN/A
5:50 AM54 °FPartly cloudy.8 mph94%29.95 "HgN/A
5:20 AM54 °FMostly cloudy.8 mph94%29.95 "HgN/A
4:50 AM54 °FLight rain. Passing clouds.10 mph94%29.95 "Hg4 mi
4:20 AM54 °FOvercast.13 mph94%29.92 "HgN/A
3:50 AM54 °FPassing clouds.14 mph88%29.92 "HgN/A
3:20 AM54 °FPassing clouds.15 mph94%29.92 "HgN/A
2:50 AM54 °FPassing clouds.16 mph94%29.89 "HgN/A
2:20 AM54 °FPassing clouds.17 mph94%29.89 "HgN/A
1:50 AM54 °FPartly cloudy.14 mph94%29.89 "HgN/A
1:20 AM54 °FPartly cloudy.15 mph94%29.86 "HgN/A
12:50 AM54 °FOvercast.15 mph94%29.86 "HgN/A
12:20 AM54 °FSprinkles. Overcast.12 mph82%29.86 "HgN/A
11:50 PM
Fri, Aug 26
54 °FSprinkles. Overcast.13 mph88%29.86 "HgN/A
11:20 PM54 °FOvercast.14 mph94%29.83 "HgN/A
10:50 PM52 °FSprinkles. Mostly cloudy.15 mph94%29.83 "HgN/A
10:20 PM52 °FSprinkles. Overcast.16 mph94%29.83 "HgN/A
Weather by CustomWeather, © 2016

See weather overviewHow to use our weather pages